Tracking 25710 objects as of 6-Jul-2022
HD Live streaming from Space Station
objects crossing your sky now

STARLINK-4041

Track STARLINK-4041 now!
10-day predictions
STARLINK-4041 is classified as:


NORAD ID: 52695
Int'l Code: 2022-053AR
Perigee: 431.9 km
Apogee: 433.7 km
Inclination: 53.2 °
Period: 93.1 minutes
Semi major axis: 6803 km
RCS: Unknown
Launch date: May 18, 2022
Source: United States (US)
Launch site: AIR FORCE EASTERN TEST RANGE (AFETR)
aabbcc
Your satellite tracking list
Your tracking list is empty




NASA's NSSDC Master Catalog

Two Line Element Set (TLE):
1 52695U 22053AR  22187.25001157 -.01059822  00000-0 -22808-1 0  9990
2 52695  53.2173  57.7164 0001342  45.0957 320.5999 15.46950381  7983
Source of the keplerian elements: AFSPC